JST771 YPAD-YMML

Flight info

Callsign JST771
Flight time 0h 55m
Altitude 35000
Route AD V255 BENDO Y12 ARBEY H119 ML
Aircraft A320/M-SDE3FGHIRWY/LB1

Departure

Time 2026-05-05 20:48
Airport Adelaide International Airport (YPAD)

Arrival

Time 2026-05-05 21:43
Airport Melbourne Airport (YMML)
Time Latitude Longitude Altitude Speed Heading
2026-05-05 20:08 -34.94086 138.53630 23 ft 0 kts 320°
2026-05-05 20:36 -34.94104 138.53648 23 ft 4 kts 314°
2026-05-05 20:37 -34.94122 138.53672 23 ft 4 kts 303°
2026-05-05 20:37 -34.94131 138.53690 22 ft 2 kts 296°
2026-05-05 20:37 -34.94131 138.53692 22 ft 0 kts 296°
2026-05-05 20:40 -34.94131 138.53691 24 ft 0 kts 290°
2026-05-05 20:40 -34.94132 138.53684 21 ft 2 kts 269°
2026-05-05 20:41 -34.94144 138.53672 20 ft 4 kts 197°
2026-05-05 20:41 -34.94185 138.53646 19 ft 9 kts 209°
2026-05-05 20:41 -34.94231 138.53647 18 ft 12 kts 157°
2026-05-05 20:41 -34.94313 138.53623 16 ft 15 kts 230°
2026-05-05 20:42 -34.94381 138.53524 17 ft 16 kts 229°
2026-05-05 20:42 -34.94460 138.53409 15 ft 17 kts 230°
2026-05-05 20:42 -34.94518 138.53297 18 ft 14 kts 255°
2026-05-05 20:42 -34.94496 138.53194 20 ft 13 kts 300°
2026-05-05 20:43 -34.94448 138.53099 24 ft 14 kts 291°
2026-05-05 20:43 -34.94470 138.52980 21 ft 16 kts 227°
2026-05-05 20:43 -34.94562 138.52892 23 ft 17 kts 218°
2026-05-05 20:43 -34.94662 138.52799 22 ft 20 kts 218°
2026-05-05 20:44 -34.94773 138.52693 21 ft 19 kts 218°
2026-05-05 20:44 -34.94884 138.52589 21 ft 22 kts 218°
2026-05-05 20:44 -34.95012 138.52467 17 ft 24 kts 217°
2026-05-05 20:44 -34.95143 138.52345 19 ft 25 kts 217°
2026-05-05 20:45 -34.95391 138.52055 21 ft 26 kts 230°
2026-05-05 20:45 -34.95486 138.51918 22 ft 20 kts 229°
2026-05-05 20:45 -34.95585 138.51772 17 ft 24 kts 230°
2026-05-05 20:46 -34.95676 138.51650 16 ft 12 kts 216°
2026-05-05 20:46 -34.95754 138.51645 14 ft 9 kts 155°
2026-05-05 20:46 -34.95806 138.51700 12 ft 12 kts 133°
2026-05-05 20:46 -34.95811 138.51780 14 ft 9 kts 53°
2026-05-05 20:47 -34.95740 138.51884 13 ft 39 kts 50°
2026-05-05 20:47 -34.95415 138.52358 17 ft 103 kts 50°
2026-05-05 20:47 -34.94850 138.53182 26 ft 149 kts 50°
2026-05-05 20:47 -34.94183 138.54185 530 ft 152 kts 50°
2026-05-05 20:48 -34.93503 138.55173 1145 ft 152 kts 48°
2026-05-05 20:48 -34.92818 138.56162 1735 ft 154 kts 48°
2026-05-05 20:48 -34.92305 138.57385 2025 ft 176 kts 83°
2026-05-05 20:48 -34.92506 138.58907 2278 ft 197 kts 117°
2026-05-05 20:49 -34.93193 138.60464 2528 ft 220 kts 120°
2026-05-05 20:49 -34.93955 138.62187 2822 ft 243 kts 120°
2026-05-05 20:49 -34.94792 138.64098 3304 ft 265 kts 120°
2026-05-05 20:49 -34.95664 138.66109 4163 ft 271 kts 120°
2026-05-05 20:50 -34.96543 138.68151 5134 ft 273 kts 120°
2026-05-05 20:50 -34.97429 138.70217 6091 ft 276 kts 120°
2026-05-05 20:50 -34.98325 138.72306 6979 ft 280 kts 120°
2026-05-05 20:50 -34.99236 138.74429 7785 ft 285 kts 120°
2026-05-05 20:51 -35.00165 138.76595 8590 ft 291 kts 119°
2026-05-05 20:51 -35.01112 138.78802 9367 ft 297 kts 119°
2026-05-05 20:51 -35.02077 138.81054 10148 ft 303 kts 119°
2026-05-05 20:51 -35.03073 138.83385 10582 ft 320 kts 118°
2026-05-05 20:52 -35.04140 138.85881 10778 ft 344 kts 118°
2026-05-05 20:52 -35.05276 138.88543 11087 ft 361 kts 118°
2026-05-05 20:52 -35.06375 138.91330 11670 ft 368 kts 111°
2026-05-05 20:52 -35.07268 138.94276 12318 ft 372 kts 110°
2026-05-05 20:53 -35.08170 138.97260 12965 ft 376 kts 110°
2026-05-05 20:53 -35.09084 139.00272 13624 ft 381 kts 110°
2026-05-05 20:53 -35.10011 139.03326 14256 ft 385 kts 110°
2026-05-05 20:53 -35.10946 139.06404 14846 ft 388 kts 110°
2026-05-05 20:54 -35.11874 139.09469 15437 ft 391 kts 111°
2026-05-05 20:54 -35.12821 139.12600 15991 ft 395 kts 111°
2026-05-05 20:54 -35.13776 139.15759 16549 ft 398 kts 111°
2026-05-05 20:54 -35.14737 139.18945 17121 ft 401 kts 111°
2026-05-05 20:55 -35.15703 139.22158 17692 ft 405 kts 111°
2026-05-05 20:55 -35.16674 139.25403 18272 ft 408 kts 111°
2026-05-05 20:55 -35.17652 139.28674 18806 ft 411 kts 111°
2026-05-05 20:55 -35.18639 139.31972 19304 ft 415 kts 111°
2026-05-05 20:56 -35.19637 139.35299 19799 ft 419 kts 111°
2026-05-05 20:56 -35.20648 139.38659 20298 ft 422 kts 111°
2026-05-05 20:56 -35.21664 139.42043 20792 ft 426 kts 111°
2026-05-05 20:56 -35.22686 139.45459 21259 ft 430 kts 110°
2026-05-05 20:57 -35.23713 139.48912 21730 ft 433 kts 110°
2026-05-05 20:57 -35.24765 139.52378 22165 ft 436 kts 112°
2026-05-05 20:57 -35.25941 139.55820 22594 ft 440 kts 115°
2026-05-05 20:57 -35.27220 139.59236 23030 ft 443 kts 116°
2026-05-05 20:58 -35.28556 139.62653 23462 ft 446 kts 116°
2026-05-05 20:58 -35.29910 139.66089 23893 ft 450 kts 116°
2026-05-05 20:58 -35.31254 139.69557 24251 ft 453 kts 116°
2026-05-05 20:58 -35.32583 139.73064 24627 ft 455 kts 115°
2026-05-05 20:59 -35.33900 139.76604 24989 ft 458 kts 115°
2026-05-05 20:59 -35.35214 139.80171 25340 ft 461 kts 115°
2026-05-05 20:59 -35.36532 139.83764 25697 ft 463 kts 115°
2026-05-05 20:59 -35.37857 139.87372 26052 ft 465 kts 115°
2026-05-05 21:00 -35.39191 139.91002 26406 ft 468 kts 115°
2026-05-05 21:00 -35.40534 139.94649 26761 ft 470 kts 115°
2026-05-05 21:00 -35.41884 139.98313 27125 ft 473 kts 115°
2026-05-05 21:00 -35.43240 140.01999 27482 ft 476 kts 115°
2026-05-05 21:01 -35.44600 140.05707 27841 ft 478 kts 115°
2026-05-05 21:01 -35.45965 140.09435 28198 ft 481 kts 115°
2026-05-05 21:01 -35.47337 140.13187 28547 ft 483 kts 115°
2026-05-05 21:01 -35.48713 140.16955 28888 ft 485 kts 115°
2026-05-05 21:02 -35.50099 140.20746 29237 ft 487 kts 114°
2026-05-05 21:02 -35.51481 140.24535 29721 ft 487 kts 114°
2026-05-05 21:02 -35.52863 140.28325 30227 ft 485 kts 114°
2026-05-05 21:02 -35.54219 140.32053 30651 ft 485 kts 114°
2026-05-05 21:03 -35.55593 140.35832 31050 ft 484 kts 114°
2026-05-05 21:03 -35.56970 140.39610 31449 ft 484 kts 114°
2026-05-05 21:03 -35.58345 140.43387 31845 ft 484 kts 114°
2026-05-05 21:03 -35.59717 140.47161 32244 ft 484 kts 114°
2026-05-05 21:04 -35.61086 140.50940 32649 ft 484 kts 114°
2026-05-05 21:04 -35.62452 140.54721 33052 ft 484 kts 114°
2026-05-05 21:04 -35.63814 140.58506 33461 ft 484 kts 114°
2026-05-05 21:04 -35.65177 140.62285 33868 ft 484 kts 114°
2026-05-05 21:05 -35.66543 140.66069 34279 ft 483 kts 114°
2026-05-05 21:05 -35.67904 140.69846 34622 ft 483 kts 114°
2026-05-05 21:05 -35.69266 140.73634 34967 ft 483 kts 114°
2026-05-05 21:05 -35.70623 140.77416 35198 ft 484 kts 114°
2026-05-05 21:06 -35.73361 140.85045 35240 ft 490 kts 114°
2026-05-05 21:06 -35.76109 140.92726 35248 ft 491 kts 114°
2026-05-05 21:07 -35.78854 141.00418 35255 ft 491 kts 114°
2026-05-05 21:07 -35.81590 141.08125 35257 ft 491 kts 114°
2026-05-05 21:08 -35.84324 141.15840 35262 ft 491 kts 114°
2026-05-05 21:08 -35.87063 141.23561 35265 ft 491 kts 114°
2026-05-05 21:09 -35.89786 141.31277 35262 ft 491 kts 113°
2026-05-05 21:09 -35.92505 141.39005 35263 ft 491 kts 113°
2026-05-05 21:10 -35.95226 141.46749 35265 ft 491 kts 113°
2026-05-05 21:10 -35.97918 141.54443 35264 ft 491 kts 113°
2026-05-05 21:11 -36.00633 141.62194 35265 ft 491 kts 113°
2026-05-05 21:11 -36.03335 141.69948 35266 ft 492 kts 113°
2026-05-05 21:12 -36.06034 141.77713 35266 ft 492 kts 113°
2026-05-05 21:12 -36.08731 141.85479 35272 ft 492 kts 113°
2026-05-05 21:13 -36.11423 141.93260 35262 ft 492 kts 113°
2026-05-05 21:13 -36.14112 142.01041 35266 ft 492 kts 113°
2026-05-05 21:14 -36.16794 142.08825 35261 ft 492 kts 112°
2026-05-05 21:14 -36.19468 142.16623 35261 ft 492 kts 112°
2026-05-05 21:15 -36.22133 142.24435 35266 ft 492 kts 112°
2026-05-05 21:15 -36.24809 142.32248 35257 ft 492 kts 112°
2026-05-05 21:16 -36.27472 142.40064 35258 ft 492 kts 112°
2026-05-05 21:16 -36.30129 142.47879 35254 ft 492 kts 112°
2026-05-05 21:17 -36.32781 142.55708 35253 ft 492 kts 112°
2026-05-05 21:17 -36.35430 142.63550 35251 ft 493 kts 112°
2026-05-05 21:18 -36.38072 142.71391 35248 ft 493 kts 112°
2026-05-05 21:18 -36.40699 142.79196 35249 ft 493 kts 112°
2026-05-05 21:19 -36.43334 142.87058 35253 ft 493 kts 111°
2026-05-05 21:19 -36.45966 142.94928 35251 ft 493 kts 111°
2026-05-05 21:20 -36.48587 143.02801 35242 ft 493 kts 111°
2026-05-05 21:20 -36.51206 143.10687 35251 ft 494 kts 111°
2026-05-05 21:21 -36.53826 143.18575 35252 ft 494 kts 111°
2026-05-05 21:21 -36.56440 143.26477 35249 ft 494 kts 111°
2026-05-05 21:22 -36.59054 143.34388 35250 ft 494 kts 111°
2026-05-05 21:22 -36.61217 143.40982 35252 ft 495 kts 111°
2026-05-05 21:23 -36.63810 143.48917 35252 ft 495 kts 111°
2026-05-05 21:23 -36.66409 143.56855 35258 ft 495 kts 111°
2026-05-05 21:24 -36.69006 143.64793 35058 ft 495 kts 111°
2026-05-05 21:24 -36.70303 143.68766 34815 ft 494 kts 111°
2026-05-05 21:24 -36.71594 143.72735 34532 ft 494 kts 111°
2026-05-05 21:25 -36.72891 143.76735 33468 ft 503 kts 111°
2026-05-05 21:25 -36.74206 143.80794 32461 ft 504 kts 111°
2026-05-05 21:25 -36.75511 143.84818 31447 ft 497 kts 111°
2026-05-05 21:25 -36.76795 143.88786 30437 ft 490 kts 111°
2026-05-05 21:26 -36.78059 143.92709 29285 ft 484 kts 111°
2026-05-05 21:26 -36.79299 143.96572 28833 ft 476 kts 111°
2026-05-05 21:26 -36.80527 144.00397 28127 ft 474 kts 111°
2026-05-05 21:26 -36.81750 144.04198 27446 ft 471 kts 111°
2026-05-05 21:27 -36.82969 144.07987 26763 ft 469 kts 111°
2026-05-05 21:27 -36.84179 144.11752 26094 ft 467 kts 111°
2026-05-05 21:27 -36.85386 144.15507 25446 ft 464 kts 111°
2026-05-05 21:27 -36.86581 144.19239 24749 ft 462 kts 110°
2026-05-05 21:28 -36.87774 144.22975 24093 ft 460 kts 110°
2026-05-05 21:28 -36.88957 144.26678 23364 ft 458 kts 110°
2026-05-05 21:28 -36.90127 144.30354 22728 ft 452 kts 110°
2026-05-05 21:28 -36.91266 144.33941 22124 ft 446 kts 110°
2026-05-05 21:29 -36.92529 144.37453 21550 ft 441 kts 117°
2026-05-05 21:29 -36.94200 144.40654 21019 ft 437 kts 127°
2026-05-05 21:29 -36.96169 144.43518 20488 ft 432 kts 131°
2026-05-05 21:29 -36.98142 144.46327 19980 ft 428 kts 130°
2026-05-05 21:30 -37.00098 144.49120 19459 ft 424 kts 130°
2026-05-05 21:30 -37.02034 144.51891 18952 ft 421 kts 130°
2026-05-05 21:30 -37.03952 144.54642 18385 ft 418 kts 130°
2026-05-05 21:30 -37.05852 144.57375 17819 ft 414 kts 130°
2026-05-05 21:31 -37.07733 144.60080 17272 ft 410 kts 130°
2026-05-05 21:31 -37.09595 144.62754 16720 ft 406 kts 130°
2026-05-05 21:31 -37.11445 144.65408 16161 ft 402 kts 130°
2026-05-05 21:31 -37.13279 144.68039 15601 ft 399 kts 131°
2026-05-05 21:32 -37.15207 144.70525 14852 ft 397 kts 140°
2026-05-05 21:32 -37.17426 144.72458 14263 ft 380 kts 152°
2026-05-05 21:32 -37.19782 144.73799 13707 ft 367 kts 163°
2026-05-05 21:32 -37.22236 144.74603 13156 ft 363 kts 170°
2026-05-05 21:33 -37.24696 144.75258 12636 ft 361 kts 170°
2026-05-05 21:33 -37.27149 144.75913 12106 ft 359 kts 170°
2026-05-05 21:33 -37.29585 144.76563 11580 ft 357 kts 170°
2026-05-05 21:33 -37.31975 144.77199 11060 ft 355 kts 170°
2026-05-05 21:34 -37.34388 144.77806 10666 ft 349 kts 173°
2026-05-05 21:34 -37.36741 144.78279 10539 ft 335 kts 175°
2026-05-05 21:34 -37.39011 144.78668 10416 ft 323 kts 175°
2026-05-05 21:34 -37.41204 144.79019 10288 ft 312 kts 176°
2026-05-05 21:35 -37.43327 144.79358 10119 ft 304 kts 176°
2026-05-05 21:35 -37.45406 144.79700 9999 ft 299 kts 176°
2026-05-05 21:35 -37.47475 144.80063 9653 ft 304 kts 174°
2026-05-05 21:35 -37.49542 144.80486 9111 ft 298 kts 173°
2026-05-05 21:36 -37.51573 144.80942 8552 ft 294 kts 173°
2026-05-05 21:36 -37.53515 144.81669 8049 ft 293 kts 155°
2026-05-05 21:36 -37.55137 144.83260 7582 ft 300 kts 130°
2026-05-05 21:36 -37.56184 144.85498 7026 ft 298 kts 108°
2026-05-05 21:37 -37.56485 144.88009 6804 ft 283 kts 92°
2026-05-05 21:37 -37.56608 144.90451 6677 ft 275 kts 93°
2026-05-05 21:37 -37.56739 144.92844 6460 ft 271 kts 93°
2026-05-05 21:37 -37.56869 144.95198 6193 ft 267 kts 94°
2026-05-05 21:38 -37.56998 144.97525 5681 ft 265 kts 94°
2026-05-05 21:38 -37.57176 144.99824 5189 ft 262 kts 104°
2026-05-05 21:38 -37.58001 145.01806 4710 ft 255 kts 135°
2026-05-05 21:38 -37.59463 145.02994 4165 ft 250 kts 165°
2026-05-05 21:39 -37.61174 145.03171 3645 ft 244 kts 187°
2026-05-05 21:39 -37.62826 145.03009 3450 ft 233 kts 186°
2026-05-05 21:39 -37.64408 145.02747 3165 ft 229 kts 201°
2026-05-05 21:39 -37.65754 145.01782 2982 ft 218 kts 225°
2026-05-05 21:40 -37.66636 145.00305 2824 ft 207 kts 247°
2026-05-05 21:40 -37.66988 144.98588 2603 ft 200 kts 269°
2026-05-05 21:40 -37.66919 144.96876 2368 ft 191 kts 275°
2026-05-05 21:40 -37.66825 144.95244 2124 ft 180 kts 276°
2026-05-05 21:41 -37.66740 144.93744 1890 ft 161 kts 276°
2026-05-05 21:41 -37.66664 144.92405 1682 ft 143 kts 276°
2026-05-05 21:41 -37.66593 144.91180 1467 ft 137 kts 276°
2026-05-05 21:41 -37.66524 144.89984 1268 ft 136 kts 277°
2026-05-05 21:42 -37.66455 144.88790 1082 ft 137 kts 277°
2026-05-05 21:42 -37.66386 144.87588 892 ft 138 kts 277°
2026-05-05 21:42 -37.66313 144.86373 719 ft 139 kts 277°
2026-05-05 21:42 -37.66253 144.85176 499 ft 138 kts 276°
2026-05-05 21:43 -37.66180 144.83992 413 ft 125 kts 274°
2026-05-05 21:43 -37.66128 144.83089 406 ft 79 kts 274°
2026-05-05 21:43 -37.66100 144.82616 401 ft 31 kts 274°
2026-05-05 21:43 -37.66086 144.82355 400 ft 21 kts 266°
2026-05-05 21:44 -37.66161 144.82234 400 ft 19 kts 195°
2026-05-05 21:44 -37.66313 144.82225 391 ft 22 kts 169°
2026-05-05 21:44 -37.66395 144.82361 382 ft 21 kts 101°
2026-05-05 21:44 -37.66423 144.82561 382 ft 24 kts 102°
2026-05-05 21:45 -37.66445 144.82764 386 ft 24 kts 93°
2026-05-05 21:45 -37.66456 144.82984 389 ft 25 kts 94°
2026-05-05 21:45 -37.66469 144.83197 398 ft 24 kts 94°
2026-05-05 21:45 -37.66481 144.83405 403 ft 24 kts 95°
2026-05-05 21:46 -37.66493 144.83621 404 ft 26 kts 93°
2026-05-05 21:46 -37.66508 144.83850 404 ft 26 kts 94°
2026-05-05 21:46 -37.66542 144.83935 403 ft 11 kts 156°
2026-05-05 21:46 -37.66639 144.83955 398 ft 17 kts 172°
2026-05-05 21:47 -37.66778 144.83980 393 ft 23 kts 172°
2026-05-05 21:47 -37.66938 144.84011 387 ft 21 kts 172°
2026-05-05 21:47 -37.67049 144.84036 384 ft 11 kts 157°
2026-05-05 21:47 -37.67079 144.84134 383 ft 14 kts 81°
2026-05-05 21:48 -37.67082 144.84244 384 ft 10 kts 130°
2026-05-05 21:48 -37.67167 144.84265 382 ft 15 kts 173°
2026-05-05 21:48 -37.67282 144.84285 380 ft 19 kts 171°
2026-05-05 21:48 -37.67405 144.84306 378 ft 11 kts 172°
2026-05-05 21:49 -37.67475 144.84353 376 ft 12 kts 107°
2026-05-05 21:49 -37.67469 144.84455 378 ft 8 kts 81°
2026-05-05 21:49 -37.67460 144.84526 379 ft 9 kts 82°
2026-05-05 21:49 -37.67452 144.84592 380 ft 6 kts 81°
2026-05-05 21:50 -37.67456 144.84615 380 ft 2 kts 124°
2026-05-05 21:50 -37.67477 144.84628 380 ft 5 kts 163°
2026-05-05 21:50 -37.67513 144.84636 379 ft 3 kts 171°
2026-05-05 21:50 -37.67522 144.84638 379 ft 1 kts 171°
2026-05-05 21:51 -37.67527 144.84639 379 ft 0 kts 171°